Regional Weather Roundup
Issued by NWS

Home | Current Version | Previous Version | Graphics & Text | Print | Product List | Glossary On
Versions: 1 2 3 4 5 6 7 8 9 10 11 12 13 14 15 16 17 18 19 20 21 22 23 24 25 26 27 28 29 30 31 32 33 34 35 36 37 38 39 40 41 42 43 44 45 46 47 48 49 50
000
ASUS43 KBIS 170002
RWRND

NORTH DAKOTA REGIONAL WEATHER ROUNDUP
NATIONAL WEATHER SERVICE BISMARCK ND
600 PM CST SAT DEC 16 2017

NOTE: "FAIR" INDICATES FEW OR NO CLOUDS BELOW 12,000 FEET WITH NO
SIGNIFICANT WEATHER AND/OR OBSTRUCTIONS TO VISIBILITY.


NDZ001>003-009>011-017-170100-
NORTHWEST NORTH DAKOTA

CITY           SKY/WX    TMP DP  RH WIND       PRES   REMARKS
WILLISTON      CLOUDY    21  18  88 CALM      29.99R
6HR MIN TEMP:  21; 6HR MAX TEMP:  36;

MINOT          CLOUDY    33  22  63 SW14      29.95R
MINOT AFB      CLOUDY    29  22  75 W10       29.94R WCI  19
$$

NDZ018>021-031>035-040>046-170100-
SOUTHWEST NORTH DAKOTA

CITY           SKY/WX    TMP DP  RH WIND       PRES   REMARKS
BISMARCK       CLOUDY    33  30  88 W7        30.01R
6HR MIN TEMP:  33; 6HR MAX TEMP:  40;

DICKINSON      CLOUDY    27  21  78 W8        29.98R WCI  19
GARRISON         N/A     28  23  81 W7        29.97R
6HR MIN TEMP:  28; 6HR MAX TEMP:  38;

HETTINGER ARPT CLOUDY    29  21  72 NW5       30.01R
$$

NDZ004>008-012>016-024-026-027-054-170100-
NORTHEAST NORTH DAKOTA

CITY           SKY/WX    TMP DP  RH WIND       PRES   REMARKS
GRAND FORKS    CLOUDY    16  15  96 S5        30.00R WCI   9
GRND FRKS AFB  CLOUDY    15  13  90 S5        29.99R WCI   8
DEVILS LAKE    CLEAR     20  19  96 S6        29.96R WCI  12
$$

NDZ022-023-025-028>030-036>039-047>053-170100-
SOUTHEAST NORTH DAKOTA

CITY           SKY/WX    TMP DP  RH WIND       PRES   REMARKS
FARGO          CLOUDY    24  23  96 SW3       30.01R FOG
6HR MIN TEMP:  24; 6HR MAX TEMP:  32;

JAMESTOWN      CLOUDY    31  29  92 CALM      29.98R
$$




USA.gov is the U.S. government's official web portal to all federal, state and local government web resources and services.